This is the latest recevied weather packets stored in our database for station/object KE8ZLU. If no packets are shown the sender has not sent any weather packets the latest 10 day(s).
| Time | Temp. | Humidity | Pressure | Rain* | Wind** | Luminosity | Snow |
|---|---|---|---|---|---|---|---|
| 1778018100 | 11.11° C | 43% | 1009.5 hPa | 0 mm | - | 116 W/m² | - |
| 1778017798 | 11.11° C | 45% | 1009.4 hPa | 0 mm | - | 118 W/m² | - |
| 1778017496 | 11.67° C | 43% | 1009.3 hPa | 0 mm | - | 121 W/m² | - |
| 1778017193 | 11.67° C | 47% | 1009.3 hPa | 0 mm | - | 128 W/m² | - |
| 1778016890 | 11.67° C | 46% | 1009.1 hPa | 0 mm | - | 131 W/m² | - |
| 1778016586 | 11.67° C | 47% | 1009.4 hPa | 0 mm | - | 143 W/m² | - |
| 1778016283 | 11.67° C | 48% | 1009.4 hPa | 0 mm | - | 167 W/m² | - |
| 1778015979 | 11.67° C | 47% | 1009.5 hPa | 0 mm | - | 186 W/m² | - |
| 1778015677 | 11.67° C | 48% | 1009.5 hPa | 0 mm | - | 225 W/m² | - |
| 1778015373 | 11.67° C | 51% | 1009.5 hPa | 0 mm | - | 193 W/m² | - |
| 1778015071 | 11.67° C | 50% | 1009.5 hPa | 0 mm | - | 96 W/m² | - |
| 1778014767 | 11.67° C | 49% | 1009.3 hPa | 0 mm | - | 95 W/m² | - |
| 1778014466 | 11.67° C | 50% | 1009.4 hPa | 0 mm | - | 101 W/m² | - |
| 1778014162 | 11.67° C | 49% | 1009.3 hPa | 0 mm | - | 117 W/m² | - |
| 1778013860 | 11.67° C | 52% | 1009.4 hPa | 0 mm | - | 139 W/m² | - |
| 1778013557 | 11.67° C | 50% | 1009.7 hPa | 0 mm | - | 137 W/m² | - |
| 1778013253 | 11.11° C | 50% | 1009.6 hPa | 0 mm | - | 134 W/m² | - |
| 1778012950 | 11.11° C | 48% | 1009.5 hPa | 0 mm | - | 123 W/m² | - |
| 1778012646 | 11.67° C | 51% | 1009.5 hPa | 0 mm | - | 120 W/m² | - |
| 1778012343 | 11.67° C | 50% | 1009.5 hPa | 0 mm | - | 171 W/m² | - |
| 1778012040 | 11.67° C | 53% | 1009.6 hPa | 0 mm | - | 167 W/m² | - |
| 1778011738 | 11.67° C | 51% | 1009.5 hPa | 0 mm | - | 177 W/m² | - |
| 1778011435 | 11.11° C | 52% | 1009.4 hPa | 0 mm | - | 229 W/m² | - |
| 1778011130 | 11.11° C | 52% | 1009.4 hPa | 0 mm | - | 145 W/m² | - |
| 1778010828 | 11.11° C | 54% | 1009.4 hPa | 0 mm | - | 111 W/m² | - |
* Rain latest hour (hover to see other rain measurements)
** Current wind speed in m/s (hover to see current wind gust speed)